| time (UTC) | temp F | wind direction | speed MPH | gust MPH | rain 1hr in | rain 24hr in | rain mn in | humidity % | barometer mb |
| 20260508223537 | 52 | 0.0 | 0.0 | 0.01 | 0.09 | 0.09 | 90 | 1007.3 | |
| 20260508222517 | 52 | 0.0 | 0.0 | 0.01 | 0.09 | 0.09 | 90 | 1007.2 | |
| 20260508221538 | 52 | 0.0 | 1.0 | 0.01 | 0.09 | 0.09 | 89 | 1007.3 | |
| 20260508220517 | 52 | 0.0 | 0.0 | 0.01 | 0.09 | 0.09 | 89 | 1007.3 | |
| 20260508215557 | 52 | 0.0 | 0.0 | 0.00 | 0.08 | 0.08 | 89 | 1007.0 | |
| 20260508214517 | 52 | 0.0 | 3.0 | 0.00 | 0.08 | 0.08 | 89 | 1006.9 | |
| 20260508213517 | 52 | 0.0 | 3.0 | 0.00 | 0.08 | 0.08 | 90 | 1006.6 | |
| 20260508213017 | 52 | 113 | 1.0 | 3.0 | 0.00 | 0.08 | 0.08 | 90 | 1006.6 |
| 20260508212017 | 52 | 0.0 | 3.0 | 0.00 | 0.08 | 0.08 | 90 | 1006.8 | |
| 20260508211037 | 52 | 0.0 | 3.0 | 0.00 | 0.08 | 0.08 | 89 | 1007.0 | |
| 20260508210038 | 52 | 0.0 | 0.0 | 0.00 | 0.08 | 0.08 | 89 | 1007.3 | |
| 20260508205017 | 52 | 0.0 | 0.0 | 0.00 | 0.08 | 0.08 | 89 | 1007.4 | |
| 20260508204017 | 52 | 0.0 | 0.0 | 0.01 | 0.08 | 0.08 | 89 | 1007.7 | |
| 20260508203037 | 52 | 0.0 | 0.0 | 0.01 | 0.08 | 0.08 | 89 | 1007.9 | |
| 20260508202017 | 52 | 0.0 | 0.0 | 0.02 | 0.08 | 0.08 | 88 | 1008.1 | |
| 20260508201038 | 51 | 0.0 | 0.0 | 0.03 | 0.08 | 0.08 | 88 | 1008.4 | |
| 20260508200017 | 51 | 0.0 | 0.0 | 0.03 | 0.08 | 0.08 | 88 | 1008.4 | |
| 20260508195017 | 51 | 0.0 | 1.0 | 0.03 | 0.08 | 0.08 | 87 | 1008.7 | |
| 20260508194018 | 51 | 0.0 | 4.0 | 0.02 | 0.07 | 0.07 | 87 | 1008.9 | |
| 20260508193037 | 51 | 203 | 2.0 | 6.0 | 0.02 | 0.07 | 0.07 | 86 | 1008.9 |
| 20260508192037 | 52 | 225 | 7.0 | 13.0 | 0.01 | 0.06 | 0.06 | 83 | 1009.2 |
| 20260508191017 | 53 | 203 | 7.0 | 11.0 | 0.00 | 0.05 | 0.05 | 81 | 1009.2 |
| 20260508190017 | 53 | 203 | 8.0 | 15.0 | 0.00 | 0.05 | 0.05 | 80 | 1009.1 |
| 20260508185037 | 54 | 203 | 7.0 | 12.0 | 0.01 | 0.05 | 0.05 | 81 | 1009.0 |
| 20260508184037 | 54 | 225 | 5.0 | 13.0 | 0.02 | 0.05 | 0.05 | 83 | 1008.8 |
| 20260508183017 | 53 | 203 | 7.0 | 13.0 | 0.02 | 0.05 | 0.05 | 83 | 1009.0 |
| 20260508182017 | 53 | 203 | 7.0 | 11.0 | 0.02 | 0.05 | 0.05 | 85 | 1009.1 |
| 20260508181018 | 52 | 203 | 6.0 | 8.0 | 0.02 | 0.05 | 0.05 | 85 | 1009.2 |
| 20260508180017 | 52 | 203 | 7.0 | 12.0 | 0.02 | 0.05 | 0.05 | 83 | 1009.3 |
| 20260508175036 | 53 | 225 | 6.0 | 10.0 | 0.01 | 0.04 | 0.04 | 80 | 1009.7 |
| 20260508174517 | 53 | 225 | 6.0 | 11.0 | 0.00 | 0.03 | 0.03 | 79 | 1009.9 |
| 20260508173515 | 54 | 225 | 3.0 | 6.0 | 0.00 | 0.03 | 0.03 | 79 | 1010.0 |
| 20260508172538 | 54 | 225 | 5.0 | 9.0 | 0.00 | 0.03 | 0.03 | 78 | 1010.1 |
| 20260508171517 | 54 | 248 | 5.0 | 9.0 | 0.00 | 0.03 | 0.03 | 78 | 1010.1 |
| 20260508170515 | 54 | 248 | 5.0 | 8.0 | 0.00 | 0.03 | 0.03 | 78 | 1010.1 |
| 20260508165515 | 54 | 248 | 7.0 | 11.0 | 0.00 | 0.03 | 0.03 | 76 | 1010.2 |
| 20260508164535 | 54 | 225 | 7.0 | 11.0 | 0.00 | 0.03 | 0.03 | 76 | 1010.0 |
| 20260508163515 | 55 | 248 | 7.0 | 12.0 | 0.00 | 0.03 | 0.03 | 74 | 1010.1 |
| 20260508162515 | 55 | 248 | 7.0 | 11.0 | 0.00 | 0.03 | 0.03 | 73 | 1010.0 |
| 20260508161515 | 55 | 225 | 8.0 | 12.0 | 0.00 | 0.03 | 0.03 | 72 | 1010.2 |
| 20260508160636 | 56 | 248 | 9.0 | 14.0 | 0.00 | 0.03 | 0.03 | 70 | 1010.1 |
| 20260508155515 | 56 | 225 | 7.0 | 13.0 | 0.00 | 0.03 | 0.03 | 70 | 1010.3 |
| 20260508154515 | 56 | 248 | 8.0 | 14.0 | 0.00 | 0.03 | 0.03 | 70 | 1010.3 |
| 20260508153515 | 55 | 248 | 10.0 | 15.0 | 0.00 | 0.03 | 0.03 | 71 | 1010.4 |
| 20260508152515 | 55 | 248 | 8.0 | 13.0 | 0.00 | 0.03 | 0.03 | 71 | 1010.3 |
| 20260508151515 | 55 | 248 | 8.0 | 12.0 | 0.00 | 0.03 | 0.03 | 70 | 1010.2 |
| 20260508150516 | 55 | 248 | 9.0 | 14.0 | 0.00 | 0.03 | 0.03 | 71 | 1010.2 |
| 20260508145535 | 55 | 248 | 9.0 | 15.0 | 0.00 | 0.03 | 0.03 | 70 | 1010.1 |
| 20260508144515 | 54 | 248 | 7.0 | 12.0 | 0.00 | 0.03 | 0.03 | 73 | 1010.2 |
| 20260508143535 | 54 | 270 | 6.0 | 12.0 | 0.00 | 0.03 | 0.03 | 73 | 1010.1 |
| 20260508142515 | 54 | 248 | 8.0 | 16.0 | 0.00 | 0.03 | 0.03 | 72 | 1010.1 |
| 20260508141516 | 54 | 248 | 8.0 | 15.0 | 0.00 | 0.03 | 0.03 | 73 | 1010.1 |
| 20260508140535 | 53 | 270 | 5.0 | 11.0 | 0.00 | 0.03 | 0.03 | 72 | 1010.1 |
| 20260508135535 | 53 | 270 | 7.0 | 14.0 | 0.00 | 0.03 | 0.03 | 73 | 1010.2 |
| 20260508134515 | 53 | 270 | 7.0 | 12.0 | 0.00 | 0.03 | 0.03 | 74 | 1010.3 |
| 20260508133556 | 53 | 270 | 4.0 | 14.0 | 0.00 | 0.03 | 0.03 | 73 | 1010.2 |
| 20260508133015 | 53 | 270 | 5.0 | 10.0 | 0.00 | 0.03 | 0.03 | 74 | 1010.2 |
| 20260508132015 | 52 | 270 | 8.0 | 18.0 | 0.00 | 0.03 | 0.03 | 74 | 1010.3 |
| 20260508131015 | 52 | 248 | 10.0 | 17.0 | 0.00 | 0.03 | 0.03 | 72 | 1010.4 |
| 20260508130015 | 52 | 248 | 7.0 | 12.0 | 0.00 | 0.03 | 0.03 | 75 | 1010.5 |
| 20260508125035 | 51 | 248 | 7.0 | 12.0 | 0.00 | 0.03 | 0.03 | 76 | 1010.4 |
| 20260508124015 | 51 | 248 | 7.0 | 13.0 | 0.00 | 0.03 | 0.03 | 74 | 1010.6 |
| 20260508123015 | 51 | 248 | 8.0 | 13.0 | 0.00 | 0.03 | 0.03 | 76 | 1010.5 |
| 20260508122015 | 49 | 225 | 7.0 | 12.0 | 0.00 | 0.03 | 0.03 | 76 | 1010.3 |
| 20260508121015 | 49 | 225 | 6.0 | 9.0 | 0.00 | 0.03 | 0.03 | 78 | 1010.2 |
| 20260508120016 | 48 | 203 | 5.0 | 9.0 | 0.00 | 0.03 | 0.03 | 82 | 1010.1 |
| 20260508115015 | 47 | 225 | 4.0 | 8.0 | 0.00 | 0.03 | 0.03 | 84 | 1010.2 |
| 20260508114036 | 46 | 203 | 6.0 | 9.0 | 0.00 | 0.03 | 0.03 | 86 | 1010.2 |
| 20260508113015 | 45 | 180 | 1.0 | 4.0 | 0.00 | 0.03 | 0.03 | 90 | 1010.1 |
| 20260508112015 | 44 | 0.0 | 2.0 | 0.00 | 0.03 | 0.03 | 89 | 1010.1 | |
| 20260508111015 | 44 | 0.0 | 1.0 | 0.00 | 0.03 | 0.03 | 89 | 1009.9 | |
| 20260508110016 | 44 | 0.0 | 0.0 | 0.01 | 0.03 | 0.03 | 88 | 1009.8 | |
| 20260508105056 | 44 | 0.0 | 0.0 | 0.01 | 0.03 | 0.03 | 87 | 1009.8 | |
| 20260508104055 | 45 | 0.0 | 0.0 | 0.01 | 0.03 | 0.03 | 86 | 1010.1 | |
| 20260508103056 | 45 | 0.0 | 0.0 | 0.01 | 0.03 | 0.03 | 87 | 1010.2 | |
| 20260508102101 | 45 | 270 | 1.0 | 4.0 | 0.01 | 0.03 | 0.03 | 88 | 1010.5 |
| 20260508101056 | 45 | 248 | 2.0 | 12.0 | 0.01 | 0.03 | 0.03 | 88 | 1010.5 |
| 20260508100015 | 44 | 0.0 | 0.0 | 0.00 | 0.02 | 0.02 | 87 | 1010.3 | |
| 20260508095015 | 45 | 0.0 | 0.0 | 0.00 | 0.02 | 0.02 | 86 | 1009.8 | |
| 20260508094036 | 45 | 0.0 | 0.0 | 0.01 | 0.02 | 0.02 | 86 | 1009.7 | |
| 20260508093035 | 45 | 180 | 1.0 | 4.0 | 0.02 | 0.02 | 0.02 | 85 | 1009.7 |
| 20260508092015 | 46 | 0.0 | 2.0 | 0.02 | 0.02 | 0.02 | 84 | 1009.9 | |
| 20260508091035 | 46 | 248 | 2.0 | 5.0 | 0.02 | 0.02 | 0.02 | 83 | 1010.2 |
| 20260508090056 | 47 | 225 | 3.0 | 6.0 | 0.02 | 0.02 | 0.02 | 81 | 1010.0 |
| 20260508085015 | 47 | 248 | 4.0 | 11.0 | 0.02 | 0.02 | 0.02 | 80 | 1010.0 |
| 20260508084035 | 47 | 270 | 11.0 | 20.0 | 0.01 | 0.01 | 0.01 | 79 | 1010.4 |
| 20260508083017 | 47 | 248 | 9.0 | 16.0 | 0.00 | 0.00 | 0.00 | 79 | 1010.3 |
| 20260508082016 | 46 | 225 | 8.0 | 12.0 | 0.00 | 0.00 | 0.00 | 79 | 1010.0 |
| 20260508081015 | 46 | 225 | 8.0 | 12.0 | 0.00 | 0.00 | 0.00 | 79 | 1010.0 |
| 20260508080016 | 46 | 225 | 7.0 | 12.0 | 0.00 | 0.00 | 0.00 | 80 | 1010.2 |
| 20260508075036 | 46 | 203 | 4.0 | 9.0 | 0.00 | 0.00 | 0.00 | 80 | 1010.3 |
| 20260508074015 | 46 | 203 | 2.0 | 6.0 | 0.00 | 0.00 | 0.00 | 80 | 1010.2 |
| 20260508073113 | 46 | 225 | 4.0 | 7.0 | 0.00 | 0.00 | 0.00 | 79 | 1010.3 |
| 20260508072515 | 46 | 203 | 3.0 | 8.0 | 0.00 | 0.00 | 0.00 | 79 | 1010.4 |
| 20260508071536 | 46 | 225 | 4.0 | 8.0 | 0.00 | 0.00 | 0.00 | 79 | 1010.4 |
| 20260508070515 | 46 | 225 | 4.0 | 9.0 | 0.00 | 0.00 | 0.00 | 79 | 1010.5 |
| 20260508065516 | 47 | 225 | 5.0 | 9.0 | 0.00 | 0.00 | 0.00 | 79 | 1010.7 |
| 20260508064516 | 47 | 225 | 6.0 | 10.0 | 0.00 | 0.00 | 0.00 | 80 | 1010.7 |
| 20260508063515 | 47 | 248 | 7.0 | 12.0 | 0.00 | 0.00 | 0.00 | 79 | 1010.9 |
| 20260508061556 | 48 | 225 | 10.0 | 15.0 | 0.00 | 0.00 | 0.00 | 74 | 1011.0 |
| 20260508060516 | 48 | 225 | 7.0 | 11.0 | 0.00 | 0.00 | 0.00 | 72 | 1010.8 |
| 20260508055515 | 47 | 203 | 4.0 | 9.0 | 0.00 | 0.00 | 0.00 | 73 | 1010.7 |
| 20260508054516 | 47 | 203 | 3.0 | 7.0 | 0.00 | 0.00 | 0.00 | 74 | 1010.8 |
| 20260508053516 | 47 | 203 | 2.0 | 7.0 | 0.00 | 0.00 | 0.00 | 74 | 1010.7 |
| 20260508052516 | 47 | 203 | 3.0 | 7.0 | 0.00 | 0.00 | 0.00 | 74 | 1010.8 |
| 20260508051515 | 46 | 203 | 1.0 | 5.0 | 0.00 | 0.00 | 0.00 | 76 | 1010.9 |
| 20260508050516 | 46 | 0.0 | 3.0 | 0.00 | 0.00 | 0.00 | 76 | 1011.0 | |
| 20260508045516 | 46 | 0.0 | 1.0 | 0.00 | 0.00 | 0.00 | 77 | 1011.0 | |
| 20260508044516 | 46 | 0.0 | 3.0 | 0.00 | 0.00 | 0.00 | 77 | 1010.9 | |
| 20260508043516 | 46 | 0.0 | 4.0 | 0.00 | 0.00 | 0.00 | 76 | 1010.9 | |
| 20260508043016 | 46 | 0.0 | 1.0 | 0.00 | 0.00 | 0.00 | 77 | 1010.9 | |
| 20260508042016 | 46 | 0.0 | 0.0 | 0.00 | 0.00 | 0.00 | 75 | 1010.9 | |
| 20260508041016 | 47 | 0.0 | 0.0 | 0.00 | 0.00 | 0.00 | 73 | 1010.8 | |
| 20260508040016 | 47 | 0.0 | 3.0 | 0.00 | 0.00 | 0.00 | 73 | 1011.1 | |
| 20260508035035 | 47 | 0.0 | 3.0 | 0.00 | 0.00 | 0.00 | 73 | 1011.2 | |
| 20260508034015 | 47 | 0.0 | 0.0 | 0.00 | 0.00 | 0.00 | 73 | 1011.3 | |
| 20260508033015 | 48 | 0.0 | 0.0 | 0.00 | 0.00 | 0.00 | 72 | 1011.3 | |
| 20260508032015 | 48 | 0.0 | 0.0 | 0.00 | 0.00 | 0.00 | 70 | 1011.3 | |
| 20260508031015 | 48 | 0.0 | 0.0 | 0.00 | 0.00 | 0.00 | 67 | 1011.5 | |
| 20260508030015 | 49 | 270 | 1.0 | 6.0 | 0.00 | 0.00 | 0.00 | 66 | 1011.6 |
| 20260508025015 | 49 | 270 | 2.0 | 8.0 | 0.00 | 0.00 | 0.00 | 66 | 1011.7 |
| 20260508024016 | 49 | 270 | 7.0 | 11.0 | 0.00 | 0.00 | 0.00 | 64 | 1011.5 |
| 20260508023015 | 48 | 248 | 8.0 | 12.0 | 0.00 | 0.00 | 0.00 | 66 | 1011.3 |
| 20260508022015 | 46 | 248 | 2.0 | 6.0 | 0.00 | 0.00 | 0.00 | 73 | 1011.1 |
| 20260508021015 | 45 | 0.0 | 2.0 | 0.00 | 0.00 | 0.00 | 76 | 1010.9 | |
| 20260508020015 | 45 | 0.0 | 0.0 | 0.00 | 0.00 | 0.00 | 77 | 1010.8 | |
| 20260508015015 | 45 | 0.0 | 0.0 | 0.00 | 0.00 | 0.00 | 77 | 1010.6 | |
| 20260508014015 | 45 | 0.0 | 0.0 | 0.00 | 0.00 | 0.00 | 75 | 1010.4 | |
| 20260508013035 | 46 | 0.0 | 0.0 | 0.00 | 0.00 | 0.00 | 73 | 1010.4 | |
| 20260508012015 | 46 | 0.0 | 0.0 | 0.00 | 0.00 | 0.00 | 70 | 1010.4 | |
| 20260508011035 | 47 | 0.0 | 0.0 | 0.00 | 0.00 | 0.00 | 65 | 1010.2 | |
| 20260508010015 | 48 | 0.0 | 0.0 | 0.00 | 0.00 | 0.00 | 65 | 1010.2 | |
| 20260508005016 | 49 | 0.0 | 0.0 | 0.00 | 0.00 | 0.00 | 62 | 1010.2 | |
| 20260508004015 | 50 | 0.0 | 0.0 | 0.00 | 0.00 | 0.00 | 55 | 1010.1 | |
| 20260508003015 | 51 | 0.0 | 0.0 | 0.00 | 0.00 | 0.00 | 55 | 1010.1 | |
| 20260508002015 | 52 | 0.0 | 0.0 | 0.00 | 0.00 | 0.00 | 49 | 1010.0 | |
| 20260508001056 | 52 | 0.0 | 0.0 | 0.00 | 0.00 | 0.00 | 48 | 1009.9 | |
| 20260508000015 | 53 | 0.0 | 0.0 | 0.00 | 0.00 | 0.00 | 48 | 1009.9 | |
| 20260507235015 | 53 | 0.0 | 1.0 | 0.00 | 0.00 | 0.00 | 48 | 1009.7 | |
| 20260507234036 | 53 | 0.0 | 2.0 | 0.00 | 0.00 | 0.00 | 47 | 1009.8 | |
| 20260507233015 | 53 | 315 | 1.0 | 9.0 | 0.00 | 0.00 | 0.00 | 47 | 1009.7 |
| 20260507232036 | 54 | 338 | 2.0 | 7.0 | 0.00 | 0.00 | 0.00 | 46 | 1009.8 |
| 20260507231015 | 55 | 315 | 2.0 | 9.0 | 0.00 | 0.00 | 0.00 | 44 | 1009.8 |
| 20260507230016 | 55 | 293 | 1.0 | 10.0 | 0.00 | 0.00 | 0.00 | 45 | 1009.7 |
| 20260507225035 | 55 | 270 | 6.0 | 16.0 | 0.00 | 0.00 | 0.00 | 44 | 1009.8 |